Location: Joffre
(52.3362°N, 113.5373°W)
Time: 13:25:31
(UTC+00:00)

Envisat - Pass Details

Date: 27 November 2021
Orbit: 764 x 766 km, 98.2° (Epoch: 28 January)

Event Time Altitude Azimuth Distance (km) Brightness Sun altitude
Rises 01:09:46 0° 216° (SW) 3,223 7.1 -14.8°
Reaches altitude 10° 01:13:05 10° 239° (WSW) 2,304 6.7 -15.3°
Maximum altitude 01:15:58 15° 274° (W) 1,975 6.2 -15.7°
Drops below altitude 10° 01:18:52 10° 309° (NW) 2,314 6.0 -16.2°
Sets 01:22:14 0° 333° (NNW) 3,247 6.4 -16.7°
